• Join FlightAware (Why Join?)
  • Login
  • US Flag 
05:22AM EDT


 

Airport Tracker/Info


-or-


 

Live Flight TrackerFlight Track Log ✈ N559LC ✈ 18-Apr-2014 ✈ KDTW - KBOS

Flight Track Log - Related Links

Times and Time Zones

All times are in EDT time to prevent confusion due to time zone crossing. See the N559LC flight status page for this flight to view local times or setup timezone preferences in your user account.

Time Position Orientation Groundspeed Altitude Reporting Facility
EDT Latitude Longitude Course Direction KTS MPH feet Rate Location/Type
05:01PM 42.2700 -83.3000 90° East 201 231 4,200  Level Cleveland Center
05:02PM 42.2978 -83.2628 45° Northeast 216 249 6,400 3,600 Climbing Cleveland Center
05:02PM 42.3031 -83.2228 80° East 238 274 8,200 2,760 Climbing Cleveland Center
05:03PM 42.3078 -83.1875 80° East 236 272 9,300 1,800 Climbing Cleveland Center
05:03PM 42.3122 -83.1308 84° East 280 322 10,100 1,740 Climbing Cleveland Center
05:04PM 42.3200 -83.0481 83° East 332 382 11,100 2,280 Climbing Cleveland Center
05:05PM 42.3319 -82.9031 84° East 383 441 13,900 2,820 Climbing Cleveland Center
05:06PM 42.3667 -82.4071 90° East  Level FlightAware Approximate
05:06PM 42.3453 -82.7497 83° East 407 468 16,900  Level Cleveland Center
05:07PM 42.3589 -82.5831 84° East 443 510 18,700 1,860 Climbing Cleveland Center
05:08PM 42.3692 -82.4081 85° East 466 536 20,800 2,040 Climbing Cleveland Center
05:09PM 42.3603 -82.2269 94° East 478 550 23,000 2,220 Climbing Cleveland Center
05:10PM 42.3503 -82.0056 93° East 491 565 25,500 2,100 Climbing Cleveland Center
05:11PM 42.3417 -81.8150 93° East 497 572 27,400 1,680 Climbing Cleveland Center
05:12PM 42.3322 -81.6169 94° East 514 592 29,000 720 Climbing Cleveland Center
05:13PM 42.3228 -81.4178 94° East 523 602 29,000  Level Cleveland Center
05:14PM 42.3131 -81.2200 94° East 523 602 29,000 420 Level Cleveland Center
05:15PM 42.3033 -81.0194 94° East 523 602 29,900 1,380 Climbing Cleveland Center
05:16PM 42.2919 -80.8189 94° East 528 608 31,900 1,800 Climbing Cleveland Center
05:17PM 42.2817 -80.6208 94° East 526 605 33,700 1,260 Climbing Cleveland Center
05:18PM 42.2703 -80.4181 94° East 535 616 34,600 1,020 Climbing Cleveland Center
05:19PM 42.2561 -80.1719 94° East 558 642 35,900 1,200 Climbing Cleveland Center
05:20PM 42.2433 -79.9606 95° East 558 642 37,100 960 Climbing Cleveland Center
05:21PM 42.2294 -79.7528 95° East 558 642 37,900 900 Climbing Cleveland Center
05:22PM 42.2161 -79.5403 95° East 568 654 39,000 480 Climbing Cleveland Center
05:23PM 42.2178 -79.3267 89° East 570 656 39,000  Level Cleveland Center
05:24PM 42.2453 -79.1067 80° East 590 679 39,000  Level Cleveland Center
05:25PM 42.2722 -78.8756 81° East 588 677 39,000  Level Cleveland Center
05:26PM 42.2983 -78.6597 81° East 587 676 39,000  Level Cleveland Center
05:27PM 42.3281 -78.3964 81° East 592 681 39,000  Level Cleveland Center
05:28PM 42.3517 -78.1767 82° East 592 681 39,000 -60 Level Cleveland Center
05:29PM 42.3753 -77.9628 81° East 586 674 38,900 -840 Descending Cleveland Center
05:30PM 42.3983 -77.7492 82° East 583 671 37,300 -1,860 Descending Cleveland Center
05:32PM 42.4261 -77.4850 82° East 602 693 35,100 -1,140 Descending Cleveland Center
05:33PM 42.4481 -77.2692 82° East 593 682 35,000 -60 Descending Cleveland Center
05:34PM 42.4697 -77.0542 82° East 586 674 35,000  Level Cleveland Center
05:35PM 42.4911 -76.8389 82° East 583 671 35,000  Level Cleveland Center
05:36PM 42.5122 -76.6208 82° East 584 672 35,000  Level Cleveland Center
05:36PM 42.5253 -76.4883 82° East 585 673 35,000  Level Boston Center
05:37PM 42.5497 -76.2222 83° East 592 681 35,000  Level Boston Center
05:38PM 42.5681 -75.9928 84° East 594 684 35,000  Level Boston Center
05:39PM 42.5714 -75.7694 89° East 597 687 35,000  Level Boston Center
05:40PM 42.5733 -75.5486 89° East 595 685 35,000  Level Boston Center
05:41PM 42.5750 -75.3272 89° East 595 685 35,000  Level Boston Center
05:42PM 42.5761 -75.1031 90° East 595 685 35,000  Level Boston Center
05:43PM 42.5761 -74.8836 90° East 593 682 35,000  Level Boston Center
05:44PM 42.5772 -74.6644 90° East 589 678 35,000  Level Boston Center
05:45PM 42.5775 -74.4231 90° East 588 677 35,000  Level Boston Center
05:47PM 42.5767 -74.2011 90° East 588 677 35,000  Level Boston Center
05:48PM 42.5764 -73.9817 90° East 588 677 35,000  Level Boston Center
05:49PM 42.5733 -73.7619 91° East 586 674 35,000  Level Boston Center
05:50PM 42.5711 -73.4964 91° East 586 674 35,000 -600 Level Boston Center
05:51PM 42.5686 -73.2778 91° East 585 673 33,800 -2,040 Descending Boston Center
05:52PM 42.5661 -73.0528 91° East 585 673 30,900 -2,700 Descending Boston Center
05:53PM 42.5625 -72.8564 91° East 550 633 28,300 -2,640 Descending Boston Center
05:54PM 42.5589 -72.6533 91° East 537 618 25,600 -2,520 Descending Boston Center
05:55PM 42.5553 -72.4653 91° East 509 586 23,200 -2,520 Descending Boston Center
05:56PM 42.5514 -72.2675 91° East 478 550 20,500 -2,460 Descending Boston Center
05:57PM 42.5467 -72.0858 92° East 455 524 18,200 -2,280 Descending Boston Center
05:58PM 42.5339 -71.9183 96° East 423 487 15,900 -1,980 Descending Boston Center
05:59PM 42.5203 -71.7856 98° East 365 420 14,200 -1,680 Descending Boston Center
06:00PM 42.5097 -71.6583 96° East 350 403 12,500 -1,620 Descending Boston Center
06:01PM 42.4964 -71.5233 98° East 339 390 10,900 -1,260 Descending Boston Center
06:02PM 42.4856 -71.4033 97° East 324 373 9,900 -960 Descending Boston Center
06:03PM 42.4736 -71.2806 97° East 307 353 9,000 -900 Descending Boston Center
06:04PM 42.4636 -71.1703 97° East 298 343 8,100 -900 Descending Boston Center
06:05PM 42.4261 -71.0786 119° Southeast 264 304 7,200 -960 Descending Boston Center
06:06PM 42.3756 -71.0156 137° Southeast 252 290 6,200 -600 Descending Boston Center
06:07PM 42.3236 -70.9650 144° Southeast 236 272 6,000 -240 Descending Boston Center
06:08PM 42.2569 -70.9583 176° South 228 262 5,800 -720 Descending Boston Center
06:09PM 42.1972 -70.9847 198° South 227 261 4,600 -1,320 Descending Boston Center
06:10PM 42.1636 -71.0339 227° Southwest 219 252 3,200 -1,020 Descending Boston Center
06:11PM 42.2047 -71.0761 323° Northwest 198 228 2,600 -600 Descending Boston Center
06:12PM 42.2533 -71.0583 15° North 185 213 2,000 -840 Descending Boston Center
06:13PM 42.3017 -71.0375 18° North 171 197 1,000 -840 Descending Boston Center
06:14PM 42.3400 -71.0175 21° North 155 178 400 -600 Descending Boston Center
06:16PM 42.3500 -71.0000 North  Level FlightAware Approximate